TECHDEMOSAT-1 (TDS-1)

Last updated on Fri Sep 11 2026 00:03:35 GMT+0000 (Coordinated Universal Time)

1 40076U 14037H 26253.49052814 .00005957 00000+0 32895-3 0 9998 2 40076 98.3869 254.2625 0005737 356.0324 4.0858 15.14363489661139
UTC large
Height (km)
Speed (km/s)
/
Latitude / Longitude
Inclination (degrees)
Orbital Period (minutes)
Azimuth
Elevation
Range (km)
Doppler Factor

Next 0 passes for location: London (51.5072 / 0.1276)

No passes found over London.
TECHDEMOSAT-1 (TDS-1)